Location: Hodgeman County Ambulance
(38.0844°N, 99.8949°W)
Time: 15:18:15
(UTC+00:00)

ATLAS 3B R/B - Pass Details

Date: 27 October 2020
Orbit: 1014 x 1181 km, 63.8° (Epoch: 23 November)

Event Time Altitude Azimuth Distance (km) Brightness Sun altitude
Exits shadow 12:26:53 - 253° (WSW) 3,312 4.7 -7.3°
Reaches altitude 10° 12:28:36 10° 261° (W) 2,792 4.3 -7.0°
Maximum altitude 12:34:00 27° 317° (NW) 1,861 3.6 -6.0°
Drops below altitude 10° 12:39:31 10° 13° (NNE) 2,838 5.0 -4.9°
Sets 12:42:39 0° 26° (NNE) 3,815 5.8 -4.3°
